Regional Weather Roundup
Issued by NWS

Home | Current Version | Previous Version | Text Only | Print | Product List | Glossary Off
Versions: 1 2 3 4 5 6 7 8 9 10 11 12 13 14 15 16 17 18 19 20 21 22 23 24 25 26 27 28 29 30 31 32 33 34 35 36 37 38 39 40 41 42 43 44 45 46 47 48 49 50

000
ASUS43 KIND 292309
RWRIN

WEATHER ROUNDUP FOR INDIANA
NATIONAL WEATHER SERVICE INDIANAPOLIS IN
700 PM EDT WED JUL 29 2015

NOTE: "FAIR" INDICATES FEW OR NO CLOUDS BELOW 12,000 FEET WITH NO
SIGNIFICANT WEATHER AND/OR OBSTRUCTIONS TO VISIBILITY.

* - STATION DOES NOT REPORT WEATHER SUCH AS PRECIPITATION OR FOG.

+ - STATION NOT QUALITY CONTROLLED BY THE NATIONAL WEATHER SERVICE.
    USE DATA WITH CAUTION...ESPECIALLY DEWPOINT AND RELATIVE
    HUMIDITY OBSERVATIONS.

INZ001>003-010>013-019-020-300000-
NORTHWEST INDIANA

CITY           SKY/WX    TMP DP  RH WIND       PRES   REMARKS
GARY /AIRPORT/ MOSUNNY   86  52  30 W23       29.96S
KNOX *+        MOSUNNY   82  61  47 N10       29.95S
LA PORTE +     SUNNY     83  58  42 NW7       29.97S
MICHIGAN CITY+ SUNNY     81  57  44 NW5       29.97S
MONTICELLO +   MOSUNNY   84  67  55 NW13G20   29.95S
RENSSELAER +   SUNNY     82  55  39 W13G18    29.98S
VALPARAISO     SUNNY     84  64  50 N3        29.97S

$$

LMZ046-743>745-300000-
SOUTHERN LAKE MICHIGAN

STATION/POSITION TIME  TEMP    WIND        PRES    WAVE
                       AIR SEA DIR/SP/G            HT
                 (UTC) (F)     (DEG/KT/KT) (MB)    (FT)
BURNS HARBOR     2200   84      60/  3/  3 1014.9S
MICHIGAN CITY    2200   81     270/  2/  4   N/A
5NW MICH CITY    2300   80 78  300/  2/  2   N/A     1

$$

INZ004-005-014>016-021>024-300000-
NORTH CENTRAL INDIANA

CITY           SKY/WX    TMP DP  RH WIND       PRES   REMARKS
GOSHEN         SUNNY     81  61  50 NW12      29.95S
LOGANSPORT +   PTSUNNY   82  68  61 NW5       29.95F
PERU/GRISSOM   MOSUNNY   85  75  70 N9        29.93F
ROCHESTER +    MOSUNNY   86  68  54 N9        29.95F
SOUTH BEND     SUNNY     83  59  44 NW7       29.97S
WARSAW +       MOSUNNY   82  61  47 NW10      29.95F

$$

INZ006>009-017-018-025>027-300000-
NORTHEAST INDIANA

CITY           SKY/WX    TMP DP  RH WIND       PRES   REMARKS
ANGOLA *+      SUNNY     82  79  89 NW10      29.94S
AUBURN +       MOSUNNY   84  68  58 NW10G18   29.93F
FORT WAYNE     PTSUNNY   86  73  65 W14       29.93F
HUNTINGTON +   MOSUNNY   85  74  71 W5        29.93F

$$

INZ028-029-035-036-043>045-051>053-300000-
WEST CENTRAL INDIANA

CITY           SKY/WX    TMP DP  RH WIND       PRES   REMARKS
CRAWFORDSVL +  PTSUNNY   82  70  67 NW9         N/A
GREENCASTLE +  CLOUDY    82  72  69 NW7       29.98R
LAFAYETTE      MOSUNNY   82  68  62 NW9       29.96S
TERRE HAUTE    CLOUDY    85  75  72 NW10      29.97S

$$

INZ030>032-037>040-046>048-054>057-064-065-300000-
CENTRAL INDIANA

CITY           SKY/WX    TMP DP  RH WIND       PRES   REMARKS
FRANKFORT +    MOSUNNY   85  74  68 W10G18    29.98S
GREENWOOD *+   CLOUDY    84  72  65 NW8       29.97R
INDIANAPOLIS   CLOUDY    85  73  67 NW12      29.95S
-EAGLE CREEK   PTSUNNY   84  75  74 NW12      29.95S
KOKOMO *+      MOSUNNY   86  75  70 N10       29.94F HX  95
MARION +       PTSUNNY   82  74  76 N5        29.95F HAZE
MT COMFORT *+  PTSUNNY   84  77  79 NW7       29.96S
SHELBYVILLE    CLOUDY    86  76  71 NW5       29.95R HX  96
ZIONSVILLE +   PTSUNNY   85  74  69 NW7       29.97R

$$

INZ033-034-041-042-049-050-058-059-300000-
EAST CENTRAL INDIANA

CITY           SKY/WX    TMP DP  RH WIND       PRES   REMARKS
MUNCIE         MOSUNNY   84  73  69 NW10      29.94F

$$

INZ060-061-067>069-081>083-085>088-300000-
SOUTHWEST INDIANA

CITY           SKY/WX    TMP DP  RH WIND       PRES   REMARKS
EVANSVILLE     PTSUNNY   86  74  67 N6        29.96R
HUNTINGBURG *+ PTSUNNY   88  73  62 NW12      29.96S HX  96
WASHINGTON +   CLOUDY    82  75  77 W5        29.95S

$$

INZ062-063-066-070>080-084-089>092-300000-
SOUTH CENTRAL AND SOUTHEAST INDIANA

CITY           SKY/WX    TMP DP  RH WIND       PRES   REMARKS
BLOOMINGTON    CLOUDY    85  77  77 NW5       29.97R HX  95
MADISON *+     CLOUDY    75  72  88 SW3       29.97S
NORTH VERNON + CLOUDY    79  75  89 CALM      29.97R
SEYMOUR +      CLOUDY    79  75  89 CALM      29.95S

$$




USA.gov is the U.S. government's official web portal to all federal, state and local government web resources and services.